| time (UTC) | temp F | wind direction | speed MPH | gust MPH | rain 1hr in | rain 24hr in | rain mn in | humidity % | barometer mb |
| 20260509123640 | 59 | 275 | 3.0 | 3.0 | 0.00 | 0.00 | 0.00 | 53 | 1022.1 |
| 20260509123137 | 59 | 289 | 2.0 | 4.0 | 0.00 | 0.00 | 0.00 | 54 | 1021.8 |
| 20260509122632 | 59 | 309 | 4.0 | 4.0 | 0.00 | 0.00 | 0.00 | 53 | 1021.9 |
| 20260509122130 | 60 | 277 | 4.0 | 7.0 | 0.00 | 0.00 | 0.00 | 51 | 1021.8 |
| 20260509121626 | 60 | 260 | 4.0 | 6.0 | 0.00 | 0.00 | 0.00 | 53 | 1021.6 |
| 20260509121124 | 60 | 277 | 4.0 | 6.0 | 0.00 | 0.00 | 0.00 | 52 | 1021.8 |
| 20260509120622 | 60 | 271 | 4.0 | 6.0 | 0.00 | 0.00 | 0.00 | 51 | 1021.7 |
| 20260509120120 | 61 | 288 | 3.0 | 3.0 | 0.00 | 0.00 | 0.00 | 49 | 1021.6 |
| 20260509115617 | 61 | 274 | 4.0 | 4.0 | 0.00 | 0.00 | 0.00 | 48 | 1021.9 |
| 20260509115115 | 62 | 288 | 6.0 | 7.0 | 0.00 | 0.00 | 0.00 | 47 | 1021.6 |
| 20260509114612 | 62 | 288 | 6.0 | 7.0 | 0.00 | 0.00 | 0.00 | 47 | 1021.6 |
| 20260509114112 | 62 | 293 | 6.0 | 8.0 | 0.00 | 0.00 | 0.00 | 46 | 1021.7 |
| 20260509113609 | 62 | 287 | 8.0 | 9.0 | 0.00 | 0.00 | 0.00 | 47 | 1021.6 |
| 20260509113107 | 62 | 277 | 4.0 | 4.0 | 0.00 | 0.00 | 0.00 | 47 | 1021.7 |
| 20260509112603 | 62 | 277 | 4.0 | 4.0 | 0.00 | 0.00 | 0.00 | 47 | 1021.7 |
| 20260509112100 | 62 | 36 | 5.0 | 6.0 | 0.00 | 0.00 | 0.00 | 46 | 1021.5 |
| 20260509111557 | 62 | 304 | 4.0 | 6.0 | 0.00 | 0.00 | 0.00 | 46 | 1021.4 |
| 20260509111054 | 63 | 298 | 6.0 | 7.0 | 0.00 | 0.00 | 0.00 | 46 | 1021.5 |
| 20260509110551 | 62 | 186 | 2.0 | 6.0 | 0.00 | 0.00 | 0.00 | 47 | 1021.5 |
| 20260509110048 | 62 | 270 | 2.0 | 4.0 | 0.00 | 0.00 | 0.00 | 48 | 1021.3 |
| 20260509105546 | 63 | 256 | 3.0 | 4.0 | 0.00 | 0.00 | 0.00 | 48 | 1021.2 |
| 20260509105043 | 63 | 275 | 3.0 | 3.0 | 0.00 | 0.00 | 0.00 | 47 | 1021.2 |
| 20260509104540 | 64 | 263 | 6.0 | 7.0 | 0.00 | 0.00 | 0.00 | 44 | 1021.0 |
| 20260509104037 | 64 | 352 | 7.0 | 8.0 | 0.00 | 0.00 | 0.00 | 44 | 1021.0 |
| 20260509103535 | 64 | 282 | 6.0 | 8.0 | 0.00 | 0.00 | 0.00 | 45 | 1020.7 |
| 20260509103033 | 64 | 303 | 8.0 | 10.0 | 0.00 | 0.00 | 0.00 | 43 | 1020.7 |
| 20260509102530 | 64 | 295 | 6.0 | 9.0 | 0.00 | 0.00 | 0.00 | 43 | 1020.7 |
| 20260509102027 | 64 | 283 | 7.0 | 10.0 | 0.00 | 0.00 | 0.00 | 44 | 1020.5 |
| 20260509101523 | 64 | 286 | 7.0 | 10.0 | 0.00 | 0.00 | 0.00 | 43 | 1020.5 |
| 20260509101020 | 64 | 348 | 9.0 | 11.0 | 0.00 | 0.00 | 0.00 | 43 | 1020.4 |
| 20260509100517 | 65 | 268 | 6.0 | 9.0 | 0.00 | 0.00 | 0.00 | 43 | 1020.3 |
| 20260509100014 | 65 | 264 | 6.0 | 10.0 | 0.00 | 0.00 | 0.00 | 42 | 1020.1 |
| 20260509095511 | 65 | 329 | 5.0 | 9.0 | 0.00 | 0.00 | 0.00 | 42 | 1020.3 |
| 20260509095008 | 65 | 327 | 6.0 | 8.0 | 0.00 | 0.00 | 0.00 | 41 | 1020.1 |
| 20260509094504 | 65 | 327 | 5.0 | 8.0 | 0.00 | 0.00 | 0.00 | 41 | 1020.1 |
| 20260509094002 | 65 | 315 | 4.0 | 9.0 | 0.00 | 0.00 | 0.00 | 41 | 1020.1 |
| 20260509093500 | 66 | 10 | 7.0 | 8.0 | 0.00 | 0.00 | 0.00 | 41 | 1020.2 |
| 20260509092957 | 66 | 331 | 3.0 | 8.0 | 0.00 | 0.00 | 0.00 | 40 | 1020.1 |
| 20260509092455 | 66 | 62 | 2.0 | 4.0 | 0.00 | 0.00 | 0.00 | 41 | 1019.9 |
| 20260509091953 | 66 | 42 | 2.0 | 4.0 | 0.00 | 0.00 | 0.00 | 40 | 1019.8 |
| 20260509091444 | 67 | 348 | 6.0 | 8.0 | 0.00 | 0.00 | 0.00 | 39 | 1019.8 |
| 20260509090942 | 67 | 349 | 4.0 | 4.0 | 0.00 | 0.00 | 0.00 | 38 | 1019.7 |
| 20260509090439 | 67 | 4 | 5.0 | 6.0 | 0.00 | 0.00 | 0.00 | 37 | 1019.6 |
| 20260509085936 | 67 | 277 | 6.0 | 8.0 | 0.00 | 0.00 | 0.00 | 36 | 1019.6 |
| 20260509085432 | 67 | 2 | 4.0 | 10.0 | 0.00 | 0.00 | 0.00 | 37 | 1019.5 |
| 20260509084928 | 67 | 297 | 4.0 | 7.0 | 0.00 | 0.00 | 0.00 | 37 | 1019.5 |
| 20260509084426 | 67 | 305 | 8.0 | 9.0 | 0.00 | 0.00 | 0.00 | 36 | 1019.4 |
| 20260509083923 | 68 | 29 | 4.0 | 8.0 | 0.00 | 0.00 | 0.00 | 36 | 1019.3 |
| 20260509083420 | 68 | 315 | 6.0 | 13.0 | 0.00 | 0.00 | 0.00 | 35 | 1019.2 |
| 20260509082917 | 68 | 5 | 8.0 | 10.0 | 0.00 | 0.00 | 0.00 | 36 | 1019.2 |
| 20260509082414 | 68 | 287 | 5.0 | 15.0 | 0.00 | 0.00 | 0.00 | 35 | 1019.3 |
| 20260509081911 | 68 | 318 | 11.0 | 14.0 | 0.00 | 0.00 | 0.00 | 35 | 1019.3 |
| 20260509081408 | 69 | 300 | 7.0 | 14.0 | 0.00 | 0.00 | 0.00 | 33 | 1019.3 |
| 20260509080906 | 69 | 224 | 9.0 | 15.0 | 0.00 | 0.00 | 0.00 | 32 | 1019.2 |
| 20260509080403 | 69 | 288 | 9.0 | 11.0 | 0.00 | 0.00 | 0.00 | 33 | 1019.1 |
| 20260509075902 | 69 | 51 | 6.0 | 13.0 | 0.00 | 0.00 | 0.00 | 34 | 1018.9 |
| 20260509075358 | 69 | 11 | 7.0 | 11.0 | 0.00 | 0.00 | 0.00 | 34 | 1019.0 |
| 20260509074856 | 69 | 278 | 7.0 | 15.0 | 0.00 | 0.00 | 0.00 | 34 | 1018.9 |
| 20260509074353 | 69 | 12 | 8.0 | 23.0 | 0.00 | 0.00 | 0.00 | 32 | 1018.7 |
| 20260509073849 | 69 | 312 | 7.0 | 15.0 | 0.00 | 0.00 | 0.00 | 32 | 1018.7 |
| 20260509073346 | 70 | 13 | 10.0 | 16.0 | 0.00 | 0.00 | 0.00 | 32 | 1019.0 |
| 20260509072842 | 70 | 292 | 6.0 | 9.0 | 0.00 | 0.00 | 0.00 | 31 | 1018.7 |
| 20260509072339 | 70 | 30 | 10.0 | 14.0 | 0.00 | 0.00 | 0.00 | 31 | 1018.6 |
| 20260509071836 | 70 | 269 | 8.0 | 16.0 | 0.00 | 0.00 | 0.00 | 30 | 1018.6 |
| 20260509071333 | 70 | 341 | 7.0 | 17.0 | 0.00 | 0.00 | 0.00 | 31 | 1018.6 |
| 20260509070830 | 70 | 330 | 9.0 | 14.0 | 0.00 | 0.00 | 0.00 | 30 | 1018.7 |
| 20260509070326 | 70 | 344 | 8.0 | 19.0 | 0.00 | 0.00 | 0.00 | 29 | 1018.6 |
| 20260509065823 | 70 | 336 | 16.0 | 21.0 | 0.00 | 0.00 | 0.00 | 28 | 1018.8 |
| 20260509065319 | 70 | 299 | 8.0 | 14.0 | 0.00 | 0.00 | 0.00 | 29 | 1018.8 |
| 20260509064815 | 70 | 326 | 11.0 | 16.0 | 0.00 | 0.00 | 0.00 | 27 | 1018.6 |
| 20260509064313 | 70 | 285 | 9.0 | 13.0 | 0.00 | 0.00 | 0.00 | 28 | 1018.8 |
| 20260509063810 | 70 | 324 | 11.0 | 14.0 | 0.00 | 0.00 | 0.00 | 27 | 1018.8 |
| 20260509063306 | 70 | 316 | 13.0 | 17.0 | 0.00 | 0.00 | 0.00 | 29 | 1018.7 |
| 20260509062804 | 70 | 320 | 17.0 | 22.0 | 0.00 | 0.00 | 0.00 | 27 | 1018.7 |
| 20260509062301 | 70 | 321 | 13.0 | 22.0 | 0.00 | 0.00 | 0.00 | 27 | 1018.7 |
| 20260509061758 | 70 | 11 | 6.0 | 16.0 | 0.00 | 0.00 | 0.00 | 30 | 1018.4 |
| 20260509061255 | 71 | 293 | 11.0 | 16.0 | 0.00 | 0.00 | 0.00 | 28 | 1018.4 |
| 20260509060752 | 70 | 293 | 12.0 | 17.0 | 0.00 | 0.00 | 0.00 | 29 | 1018.6 |
| 20260509060249 | 70 | 12 | 11.0 | 17.0 | 0.00 | 0.00 | 0.00 | 29 | 1018.3 |
| 20260509055745 | 71 | 349 | 11.0 | 16.0 | 0.00 | 0.00 | 0.00 | 30 | 1018.3 |
| 20260509055241 | 70 | 34 | 18.0 | 21.0 | 0.00 | 0.00 | 0.00 | 30 | 1018.5 |
| 20260509054737 | 70 | 354 | 12.0 | 18.0 | 0.00 | 0.00 | 0.00 | 31 | 1018.1 |
| 20260509054234 | 70 | 286 | 10.0 | 23.0 | 0.00 | 0.00 | 0.00 | 30 | 1018.1 |
| 20260509053733 | 70 | 322 | 9.0 | 22.0 | 0.00 | 0.00 | 0.00 | 30 | 1018.4 |
| 20260509053229 | 70 | 333 | 13.0 | 18.0 | 0.00 | 0.00 | 0.00 | 31 | 1018.0 |
| 20260509052727 | 70 | 342 | 12.0 | 24.0 | 0.00 | 0.00 | 0.00 | 32 | 1018.5 |
| 20260509052225 | 70 | 359 | 12.0 | 15.0 | 0.00 | 0.00 | 0.00 | 31 | 1018.6 |
| 20260509051722 | 70 | 308 | 13.0 | 18.0 | 0.00 | 0.00 | 0.00 | 31 | 1018.6 |
| 20260509051220 | 70 | 345 | 9.0 | 17.0 | 0.00 | 0.00 | 0.00 | 33 | 1018.6 |
| 20260509050717 | 70 | 337 | 14.0 | 18.0 | 0.00 | 0.00 | 0.00 | 33 | 1018.7 |
| 20260509050213 | 69 | 356 | 11.0 | 13.0 | 0.00 | 0.00 | 0.00 | 34 | 1018.6 |
| 20260509045710 | 69 | 287 | 13.0 | 18.0 | 0.00 | 0.00 | 0.00 | 34 | 1018.6 |
| 20260509045207 | 69 | 288 | 15.0 | 21.0 | 0.00 | 0.00 | 0.00 | 35 | 1018.7 |
| 20260509044705 | 69 | 292 | 11.0 | 17.0 | 0.00 | 0.00 | 0.00 | 34 | 1018.8 |
| 20260509044202 | 69 | 331 | 10.0 | 16.0 | 0.00 | 0.00 | 0.00 | 35 | 1018.8 |
| 20260509043658 | 69 | 335 | 13.0 | 19.0 | 0.00 | 0.00 | 0.00 | 34 | 1018.7 |
| 20260509043154 | 69 | 336 | 15.0 | 19.0 | 0.00 | 0.00 | 0.00 | 34 | 1018.7 |
| 20260509042651 | 69 | 4 | 10.0 | 22.0 | 0.00 | 0.00 | 0.00 | 34 | 1019.0 |
| 20260509042147 | 69 | 345 | 15.0 | 24.0 | 0.00 | 0.00 | 0.00 | 34 | 1018.9 |
| 20260509041643 | 69 | 359 | 15.0 | 24.0 | 0.00 | 0.00 | 0.00 | 34 | 1018.9 |
| 20260509041141 | 69 | 333 | 16.0 | 22.0 | 0.00 | 0.00 | 0.00 | 35 | 1019.0 |
| 20260509040639 | 69 | 341 | 17.0 | 23.0 | 0.00 | 0.00 | 0.00 | 35 | 1018.9 |
| 20260509040136 | 68 | 321 | 13.0 | 21.0 | 0.00 | 0.00 | 0.00 | 37 | 1018.7 |
| 20260509035633 | 68 | 329 | 11.0 | 27.0 | 0.00 | 0.00 | 0.00 | 36 | 1018.6 |
| 20260509035129 | 68 | 6 | 15.0 | 25.0 | 0.00 | 0.00 | 0.00 | 36 | 1018.6 |
| 20260509034627 | 68 | 357 | 11.0 | 21.0 | 0.00 | 0.00 | 0.00 | 38 | 1018.8 |
| 20260509034124 | 68 | 272 | 14.0 | 19.0 | 0.00 | 0.00 | 0.00 | 37 | 1018.8 |
| 20260509033621 | 68 | 355 | 9.0 | 19.0 | 0.00 | 0.00 | 0.00 | 38 | 1018.9 |
| 20260509033118 | 68 | 320 | 13.0 | 25.0 | 0.00 | 0.00 | 0.00 | 39 | 1018.8 |
| 20260509032615 | 68 | 294 | 14.0 | 23.0 | 0.00 | 0.00 | 0.00 | 38 | 1019.2 |
| 20260509032112 | 68 | 307 | 8.0 | 18.0 | 0.00 | 0.00 | 0.00 | 41 | 1019.0 |
| 20260509031610 | 67 | 249 | 11.0 | 25.0 | 0.00 | 0.00 | 0.00 | 37 | 1019.1 |
| 20260509031107 | 67 | 6 | 20.0 | 29.0 | 0.00 | 0.00 | 0.00 | 38 | 1019.0 |
| 20260509030605 | 67 | 331 | 11.0 | 18.0 | 0.00 | 0.00 | 0.00 | 41 | 1019.1 |
| 20260509025558 | 67 | 4 | 9.0 | 16.0 | 0.00 | 0.00 | 0.00 | 41 | 1019.0 |
| 20260509025053 | 67 | 295 | 11.0 | 22.0 | 0.00 | 0.00 | 0.00 | 41 | 1019.1 |
| 20260509024549 | 67 | 352 | 12.0 | 30.0 | 0.00 | 0.00 | 0.00 | 41 | 1019.2 |
| 20260509024046 | 66 | 309 | 9.0 | 19.0 | 0.00 | 0.00 | 0.00 | 42 | 1019.5 |
| 20260509023544 | 67 | 340 | 13.0 | 21.0 | 0.00 | 0.00 | 0.00 | 41 | 1019.1 |
| 20260509023040 | 66 | 301 | 8.0 | 16.0 | 0.00 | 0.00 | 0.00 | 42 | 1019.5 |
| 20260509022537 | 67 | 342 | 13.0 | 18.0 | 0.00 | 0.00 | 0.00 | 41 | 1019.4 |
| 20260509022035 | 66 | 121 | 15.0 | 17.0 | 0.00 | 0.00 | 0.00 | 40 | 1019.3 |
| 20260509021532 | 66 | 279 | 15.0 | 23.0 | 0.00 | 0.00 | 0.00 | 42 | 1019.5 |
| 20260509021028 | 66 | 305 | 8.0 | 18.0 | 0.00 | 0.00 | 0.00 | 42 | 1019.7 |
| 20260509020527 | 65 | 316 | 14.0 | 21.0 | 0.00 | 0.00 | 0.00 | 43 | 1019.5 |
| 20260509020023 | 66 | 284 | 8.0 | 15.0 | 0.00 | 0.00 | 0.00 | 46 | 1019.8 |
| 20260509015522 | 66 | 43 | 12.0 | 19.0 | 0.00 | 0.00 | 0.00 | 44 | 1019.5 |
| 20260509015019 | 65 | 303 | 9.0 | 15.0 | 0.00 | 0.00 | 0.00 | 44 | 1019.5 |
| 20260509014516 | 65 | 314 | 10.0 | 16.0 | 0.00 | 0.00 | 0.00 | 46 | 1019.8 |
| 20260509014012 | 65 | 306 | 14.0 | 21.0 | 0.00 | 0.00 | 0.00 | 46 | 1019.9 |
| 20260509013509 | 64 | 280 | 12.0 | 18.0 | 0.00 | 0.00 | 0.00 | 46 | 1019.8 |
| 20260509013005 | 65 | 297 | 12.0 | 17.0 | 0.00 | 0.00 | 0.00 | 47 | 1019.8 |
| 20260509012501 | 65 | 10 | 12.0 | 17.0 | 0.00 | 0.00 | 0.00 | 46 | 1019.8 |
| 20260509011958 | 64 | 340 | 11.0 | 19.0 | 0.00 | 0.00 | 0.00 | 49 | 1019.7 |
| 20260509011456 | 64 | 296 | 18.0 | 24.0 | 0.00 | 0.00 | 0.00 | 47 | 1019.9 |
| 20260509010953 | 64 | 305 | 12.0 | 19.0 | 0.00 | 0.00 | 0.00 | 47 | 1020.1 |
| 20260509010451 | 63 | 293 | 8.0 | 14.0 | 0.00 | 0.00 | 0.00 | 50 | 1019.9 |
| 20260509005947 | 64 | 294 | 11.0 | 18.0 | 0.00 | 0.00 | 0.00 | 49 | 1020.1 |
| 20260509005446 | 64 | 312 | 9.0 | 15.0 | 0.00 | 0.00 | 0.00 | 49 | 1020.0 |
| 20260509004945 | 63 | 9 | 9.0 | 13.0 | 0.00 | 0.00 | 0.00 | 50 | 1020.1 |
| 20260509004442 | 63 | 289 | 8.0 | 11.0 | 0.00 | 0.00 | 0.00 | 51 | 1020.0 |
| 20260509003940 | 62 | 345 | 12.0 | 16.0 | 0.00 | 0.00 | 0.00 | 50 | 1019.8 |
| 20260509003438 | 62 | 298 | 9.0 | 16.0 | 0.00 | 0.00 | 0.00 | 52 | 1019.7 |
| 20260509002935 | 62 | 326 | 13.0 | 16.0 | 0.00 | 0.00 | 0.00 | 52 | 1019.7 |
| 20260509002433 | 62 | 283 | 6.0 | 10.0 | 0.00 | 0.00 | 0.00 | 53 | 1019.8 |
| 20260509001929 | 63 | 267 | 9.0 | 10.0 | 0.00 | 0.00 | 0.00 | 52 | 1019.7 |
| 20260509001426 | 63 | 338 | 10.0 | 13.0 | 0.00 | 0.00 | 0.00 | 50 | 1019.6 |
| 20260509000924 | 63 | 4 | 6.0 | 14.0 | 0.00 | 0.00 | 0.00 | 50 | 1019.4 |
| 20260509000422 | 63 | 5 | 13.0 | 15.0 | 0.00 | 0.00 | 0.00 | 48 | 1019.3 |
| 20260508235917 | 62 | 275 | 10.0 | 18.0 | 0.00 | 0.00 | 0.00 | 51 | 1019.5 |
| 20260508235415 | 61 | 346 | 14.0 | 23.0 | 0.00 | 0.00 | 0.00 | 50 | 1019.4 |
| 20260508234911 | 61 | 330 | 15.0 | 19.0 | 0.00 | 0.00 | 0.00 | 51 | 1019.4 |
| 20260508234409 | 61 | 303 | 7.0 | 14.0 | 0.00 | 0.00 | 0.00 | 52 | 1019.3 |
| 20260508233906 | 61 | 312 | 8.0 | 14.0 | 0.00 | 0.00 | 0.00 | 52 | 1019.5 |
| 20260508233405 | 61 | 291 | 13.0 | 17.0 | 0.00 | 0.00 | 0.00 | 52 | 1019.3 |
| 20260508232901 | 61 | 258 | 21.0 | 24.0 | 0.00 | 0.00 | 0.00 | 52 | 1019.2 |
| 20260508232358 | 61 | 282 | 9.0 | 17.0 | 0.00 | 0.00 | 0.00 | 53 | 1019.4 |
| 20260508231856 | 60 | 310 | 10.0 | 14.0 | 0.00 | 0.00 | 0.00 | 54 | 1019.4 |
| 20260508231352 | 60 | 318 | 11.0 | 14.0 | 0.00 | 0.00 | 0.00 | 54 | 1019.2 |
| 20260508230849 | 60 | 309 | 6.0 | 15.0 | 0.00 | 0.00 | 0.00 | 55 | 1019.2 |
| 20260508230345 | 60 | 294 | 11.0 | 19.0 | 0.00 | 0.00 | 0.00 | 54 | 1019.1 |
| 20260508225843 | 60 | 288 | 6.0 | 16.0 | 0.00 | 0.00 | 0.00 | 55 | 1019.2 |
| 20260508225339 | 60 | 268 | 9.0 | 14.0 | 0.00 | 0.00 | 0.00 | 55 | 1019.1 |
| 20260508224838 | 60 | 257 | 11.0 | 17.0 | 0.00 | 0.00 | 0.00 | 55 | 1018.9 |
| 20260508224335 | 59 | 272 | 10.0 | 18.0 | 0.00 | 0.00 | 0.00 | 55 | 1019.0 |
| 20260508223832 | 59 | 277 | 11.0 | 14.0 | 0.00 | 0.00 | 0.00 | 56 | 1019.0 |
| 20260508223329 | 59 | 269 | 12.0 | 17.0 | 0.00 | 0.00 | 0.00 | 56 | 1018.9 |
| 20260508222827 | 59 | 308 | 11.0 | 17.0 | 0.00 | 0.00 | 0.00 | 56 | 1018.6 |
| 20260508222324 | 58 | 289 | 10.0 | 15.0 | 0.00 | 0.00 | 0.00 | 58 | 1018.7 |
| 20260508221820 | 58 | 317 | 8.0 | 18.0 | 0.00 | 0.00 | 0.00 | 57 | 1018.7 |
| 20260508221316 | 58 | 289 | 11.0 | 17.0 | 0.00 | 0.00 | 0.00 | 57 | 1018.8 |
| 20260508220812 | 58 | 277 | 14.0 | 18.0 | 0.00 | 0.00 | 0.00 | 57 | 1018.8 |
| 20260508220309 | 58 | 288 | 9.0 | 13.0 | 0.00 | 0.00 | 0.00 | 57 | 1018.6 |
| 20260508215806 | 58 | 264 | 12.0 | 18.0 | 0.00 | 0.00 | 0.00 | 56 | 1018.3 |
| 20260508215306 | 59 | 281 | 8.0 | 16.0 | 0.00 | 0.00 | 0.00 | 57 | 1018.4 |
| 20260508214759 | 59 | 338 | 16.0 | 21.0 | 0.00 | 0.00 | 0.00 | 55 | 1018.5 |
| 20260508214256 | 59 | 270 | 16.0 | 23.0 | 0.00 | 0.00 | 0.00 | 55 | 1018.1 |
| 20260508213753 | 59 | 278 | 9.0 | 16.0 | 0.00 | 0.00 | 0.00 | 56 | 1018.2 |
| 20260508213250 | 58 | 318 | 12.0 | 16.0 | 0.00 | 0.00 | 0.00 | 56 | 1018.3 |
| 20260508212741 | 58 | 274 | 13.0 | 19.0 | 0.00 | 0.00 | 0.00 | 58 | 1018.3 |
| 20260508212237 | 58 | 269 | 9.0 | 11.0 | 0.00 | 0.00 | 0.00 | 58 | 1018.2 |
| 20260508211733 | 58 | 322 | 12.0 | 17.0 | 0.00 | 0.00 | 0.00 | 58 | 1018.1 |
| 20260508211228 | 57 | 288 | 10.0 | 14.0 | 0.00 | 0.00 | 0.00 | 58 | 1018.1 |
| 20260508210726 | 57 | 294 | 7.0 | 14.0 | 0.00 | 0.00 | 0.00 | 58 | 1018.3 |
| 20260508210223 | 57 | 299 | 10.0 | 13.0 | 0.00 | 0.00 | 0.00 | 59 | 1018.2 |
| 20260508205720 | 57 | 275 | 12.0 | 18.0 | 0.00 | 0.00 | 0.00 | 58 | 1018.0 |
| 20260508205216 | 57 | 299 | 9.0 | 16.0 | 0.00 | 0.00 | 0.00 | 57 | 1018.2 |
| 20260508204712 | 57 | 307 | 9.0 | 11.0 | 0.00 | 0.00 | 0.00 | 58 | 1017.9 |
| 20260508204209 | 58 | 295 | 10.0 | 18.0 | 0.00 | 0.00 | 0.00 | 56 | 1017.7 |
| 20260508203705 | 58 | 288 | 12.0 | 19.0 | 0.00 | 0.00 | 0.00 | 57 | 1017.4 |
| 20260508203201 | 58 | 296 | 14.0 | 17.0 | 0.00 | 0.00 | 0.00 | 57 | 1017.5 |
| 20260508202657 | 58 | 286 | 11.0 | 17.0 | 0.00 | 0.00 | 0.00 | 57 | 1017.5 |
| 20260508202155 | 58 | 299 | 13.0 | 15.0 | 0.00 | 0.00 | 0.00 | 57 | 1017.3 |
| 20260508201652 | 58 | 298 | 14.0 | 21.0 | 0.00 | 0.00 | 0.00 | 56 | 1017.7 |
| 20260508201148 | 58 | 270 | 14.0 | 19.0 | 0.00 | 0.00 | 0.00 | 56 | 1017.5 |
| 20260508200645 | 58 | 335 | 8.0 | 14.0 | 0.00 | 0.00 | 0.00 | 55 | 1017.3 |
| 20260508200141 | 58 | 296 | 16.0 | 19.0 | 0.00 | 0.00 | 0.00 | 54 | 1017.3 |
| 20260508195638 | 58 | 302 | 12.0 | 19.0 | 0.00 | 0.00 | 0.00 | 53 | 1017.2 |
| 20260508195134 | 58 | 254 | 9.0 | 15.0 | 0.00 | 0.00 | 0.00 | 53 | 1016.8 |
| 20260508194631 | 58 | 276 | 12.0 | 22.0 | 0.00 | 0.00 | 0.00 | 52 | 1016.9 |
| 20260508194128 | 58 | 278 | 11.0 | 15.0 | 0.00 | 0.00 | 0.00 | 52 | 1016.8 |
| 20260508193625 | 58 | 269 | 9.0 | 21.0 | 0.00 | 0.00 | 0.00 | 53 | 1016.5 |
| 20260508193121 | 58 | 301 | 12.0 | 21.0 | 0.00 | 0.00 | 0.00 | 53 | 1016.5 |
| 20260508192618 | 59 | 298 | 13.0 | 23.0 | 0.00 | 0.00 | 0.00 | 52 | 1016.4 |
| 20260508192115 | 59 | 312 | 16.0 | 21.0 | 0.00 | 0.00 | 0.00 | 52 | 1016.1 |
| 20260508191612 | 58 | 272 | 14.0 | 18.0 | 0.00 | 0.00 | 0.00 | 53 | 1016.2 |
| 20260508191109 | 59 | 324 | 15.0 | 22.0 | 0.00 | 0.00 | 0.00 | 52 | 1016.1 |
| 20260508190606 | 59 | 334 | 18.0 | 25.0 | 0.00 | 0.00 | 0.00 | 51 | 1016.2 |
| 20260508185559 | 59 | 293 | 14.0 | 18.0 | 0.00 | 0.00 | 0.00 | 49 | 1015.9 |
| 20260508185057 | 59 | 262 | 12.0 | 15.0 | 0.00 | 0.00 | 0.00 | 49 | 1015.9 |
| 20260508184554 | 59 | 319 | 12.0 | 15.0 | 0.00 | 0.00 | 0.00 | 48 | 1015.9 |
| 20260508184052 | 59 | 290 | 8.0 | 13.0 | 0.00 | 0.00 | 0.00 | 49 | 1015.9 |
| 20260508183548 | 59 | 296 | 10.0 | 14.0 | 0.00 | 0.00 | 0.00 | 48 | 1015.7 |
| 20260508183043 | 59 | 273 | 8.0 | 13.0 | 0.00 | 0.00 | 0.00 | 49 | 1015.5 |
| 20260508182540 | 59 | 317 | 11.0 | 15.0 | 0.00 | 0.00 | 0.00 | 50 | 1015.2 |
| 20260508182037 | 59 | 252 | 6.0 | 13.0 | 0.00 | 0.00 | 0.00 | 51 | 1015.4 |
| 20260508181532 | 59 | 274 | 11.0 | 16.0 | 0.00 | 0.00 | 0.00 | 50 | 1015.5 |
| 20260508181030 | 59 | 277 | 8.0 | 11.0 | 0.00 | 0.00 | 0.00 | 51 | 1015.3 |
| 20260508180526 | 59 | 290 | 7.0 | 10.0 | 0.00 | 0.00 | 0.00 | 51 | 1015.4 |
| 20260508180023 | 58 | 315 | 10.0 | 16.0 | 0.00 | 0.00 | 0.00 | 51 | 1015.3 |
| 20260508175519 | 58 | 336 | 6.0 | 9.0 | 0.00 | 0.00 | 0.00 | 53 | 1015.2 |
| 20260508175017 | 58 | 291 | 5.0 | 11.0 | 0.00 | 0.00 | 0.00 | 54 | 1015.3 |
| 20260508174514 | 58 | 290 | 6.0 | 8.0 | 0.00 | 0.00 | 0.00 | 53 | 1015.3 |
| 20260508174011 | 58 | 312 | 6.0 | 8.0 | 0.00 | 0.00 | 0.00 | 54 | 1015.4 |
| 20260508173508 | 58 | 293 | 4.0 | 7.0 | 0.00 | 0.00 | 0.00 | 54 | 1015.4 |
| 20260508173004 | 58 | 335 | 4.0 | 9.0 | 0.00 | 0.00 | 0.00 | 54 | 1015.4 |
| 20260508172501 | 58 | 283 | 3.0 | 6.0 | 0.00 | 0.00 | 0.00 | 54 | 1015.6 |
| 20260508171957 | 58 | 301 | 5.0 | 7.0 | 0.00 | 0.00 | 0.00 | 54 | 1015.4 |
| 20260508171454 | 58 | 271 | 5.0 | 6.0 | 0.00 | 0.00 | 0.00 | 54 | 1015.5 |
| 20260508170950 | 58 | 269 | 3.0 | 8.0 | 0.00 | 0.00 | 0.00 | 54 | 1015.4 |
| 20260508170448 | 58 | 287 | 4.0 | 8.0 | 0.00 | 0.00 | 0.00 | 54 | 1015.3 |
| 20260508165945 | 58 | 230 | 1.0 | 6.0 | 0.00 | 0.00 | 0.00 | 54 | 1015.4 |
| 20260508165443 | 58 | 336 | 5.0 | 8.0 | 0.00 | 0.00 | 0.00 | 54 | 1015.5 |
| 20260508164938 | 58 | 325 | 7.0 | 9.0 | 0.00 | 0.00 | 0.00 | 54 | 1015.7 |
| 20260508164435 | 58 | 263 | 4.0 | 6.0 | 0.00 | 0.00 | 0.00 | 56 | 1015.4 |
| 20260508163933 | 58 | 295 | 5.0 | 8.0 | 0.00 | 0.00 | 0.00 | 55 | 1015.7 |
| 20260508163431 | 58 | 289 | 6.0 | 8.0 | 0.00 | 0.00 | 0.00 | 55 | 1015.4 |
| 20260508162926 | 58 | 305 | 4.0 | 8.0 | 0.00 | 0.00 | 0.00 | 55 | 1015.5 |
| 20260508162424 | 58 | 277 | 5.0 | 8.0 | 0.00 | 0.00 | 0.00 | 55 | 1015.5 |
| 20260508161920 | 58 | 278 | 6.0 | 9.0 | 0.00 | 0.00 | 0.00 | 55 | 1015.4 |
| 20260508161417 | 58 | 287 | 6.0 | 10.0 | 0.00 | 0.00 | 0.00 | 55 | 1015.5 |
| 20260508160915 | 58 | 295 | 5.0 | 9.0 | 0.00 | 0.00 | 0.00 | 56 | 1015.5 |
| 20260508160414 | 58 | 271 | 6.0 | 9.0 | 0.00 | 0.00 | 0.00 | 57 | 1015.9 |
| 20260508155909 | 58 | 304 | 7.0 | 8.0 | 0.00 | 0.00 | 0.00 | 58 | 1015.5 |
| 20260508155407 | 57 | 287 | 4.0 | 7.0 | 0.00 | 0.00 | 0.00 | 60 | 1015.4 |
| 20260508154903 | 58 | 287 | 4.0 | 7.0 | 0.00 | 0.00 | 0.00 | 62 | 1015.4 |
| 20260508154401 | 57 | 263 | 4.0 | 6.0 | 0.00 | 0.00 | 0.00 | 62 | 1015.5 |
| 20260508153857 | 57 | 294 | 4.0 | 4.0 | 0.00 | 0.00 | 0.00 | 63 | 1015.5 |
| 20260508153354 | 57 | 248 | 2.0 | 3.0 | 0.00 | 0.00 | 0.00 | 67 | 1015.5 |
| 20260508152850 | 57 | 188 | 0.0 | 1.0 | 0.00 | 0.00 | 0.00 | 69 | 1015.4 |
| 20260508152347 | 57 | 193 | 1.0 | 2.0 | 0.00 | 0.00 | 0.00 | 69 | 1015.5 |
| 20260508151843 | 58 | 172 | 0.0 | 1.0 | 0.00 | 0.00 | 0.00 | 67 | 1015.5 |
| 20260508151341 | 58 | 187 | 0.0 | 1.0 | 0.00 | 0.00 | 0.00 | 67 | 1015.5 |
| 20260508150837 | 58 | 284 | 1.0 | 3.0 | 0.00 | 0.00 | 0.00 | 66 | 1015.5 |
| 20260508150334 | 58 | 265 | 1.0 | 2.0 | 0.00 | 0.00 | 0.00 | 65 | 1015.5 |
| 20260508145830 | 58 | 327 | 2.0 | 2.0 | 0.00 | 0.00 | 0.00 | 65 | 1015.7 |
| 20260508145326 | 59 | 306 | 2.0 | 2.0 | 0.00 | 0.00 | 0.00 | 64 | 1015.5 |
| 20260508144823 | 59 | 264 | 1.0 | 2.0 | 0.00 | 0.00 | 0.00 | 63 | 1015.7 |
| 20260508144321 | 59 | 14 | 2.0 | 2.0 | 0.00 | 0.00 | 0.00 | 62 | 1015.9 |
| 20260508143818 | 60 | 280 | 2.0 | 3.0 | 0.00 | 0.00 | 0.00 | 61 | 1015.6 |
| 20260508143315 | 60 | 281 | 3.0 | 6.0 | 0.00 | 0.00 | 0.00 | 61 | 1015.9 |
| 20260508142812 | 60 | 322 | 2.0 | 4.0 | 0.00 | 0.00 | 0.00 | 61 | 1015.5 |
| 20260508142309 | 60 | 263 | 4.0 | 7.0 | 0.00 | 0.00 | 0.00 | 60 | 1015.7 |
| 20260508141805 | 60 | 292 | 4.0 | 7.0 | 0.00 | 0.00 | 0.00 | 60 | 1015.6 |
| 20260508141302 | 60 | 296 | 4.0 | 7.0 | 0.00 | 0.00 | 0.00 | 60 | 1015.7 |
| 20260508140800 | 61 | 322 | 6.0 | 7.0 | 0.00 | 0.00 | 0.00 | 60 | 1015.4 |
| 20260508140257 | 61 | 319 | 5.0 | 7.0 | 0.00 | 0.00 | 0.00 | 60 | 1015.4 |
| 20260508135753 | 61 | 340 | 4.0 | 7.0 | 0.00 | 0.00 | 0.00 | 59 | 1015.5 |
| 20260508135249 | 61 | 320 | 4.0 | 6.0 | 0.00 | 0.00 | 0.00 | 59 | 1015.7 |
| 20260508134744 | 61 | 332 | 5.0 | 7.0 | 0.00 | 0.00 | 0.00 | 59 | 1015.4 |
| 20260508134242 | 61 | 352 | 6.0 | 9.0 | 0.00 | 0.00 | 0.00 | 59 | 1015.5 |
| 20260508133738 | 61 | 13 | 5.0 | 6.0 | 0.00 | 0.00 | 0.00 | 60 | 1015.4 |
| 20260508133236 | 62 | 300 | 4.0 | 8.0 | 0.00 | 0.00 | 0.00 | 60 | 1015.6 |
| 20260508132734 | 62 | 358 | 2.0 | 4.0 | 0.00 | 0.00 | 0.00 | 61 | 1015.5 |
| 20260508132231 | 62 | 42 | 4.0 | 8.0 | 0.00 | 0.00 | 0.00 | 61 | 1015.4 |
| 20260508131726 | 62 | 243 | 4.0 | 7.0 | 0.00 | 0.00 | 0.00 | 60 | 1015.1 |
| 20260508131223 | 62 | 325 | 6.0 | 8.0 | 0.00 | 0.00 | 0.00 | 61 | 1015.1 |
| 20260508130720 | 62 | 341 | 8.0 | 11.0 | 0.00 | 0.00 | 0.00 | 61 | 1015.0 |
| 20260508130217 | 62 | 10 | 6.0 | 9.0 | 0.00 | 0.00 | 0.00 | 61 | 1014.8 |
| 20260508125712 | 62 | 238 | 6.0 | 15.0 | 0.00 | 0.00 | 0.00 | 61 | 1014.9 |
| 20260508125209 | 62 | 28 | 4.0 | 10.0 | 0.00 | 0.00 | 0.00 | 62 | 1014.6 |
| 20260508124707 | 62 | 266 | 10.0 | 18.0 | 0.00 | 0.00 | 0.00 | 62 | 1014.7 |
| 20260508124204 | 62 | 293 | 10.0 | 11.0 | 0.00 | 0.00 | 0.00 | 63 | 1014.6 |